Location: Beuvrequen
(50.8014°N, 1.6652°E)
Time: 02:22:17
(UTC+00:00)

CZ-2C R/B - Pass Details

Date: 16 October 2021
Orbit: 784 x 870 km, 98.2° (Epoch: 28 November)

Event Time Altitude Azimuth Distance (km) Brightness Sun altitude
Rises 17:46:40 0° 18° (NNE) 3,473 5.7 -8.3°
Reaches altitude 10° 17:49:10 10° 24° (NNE) 2,531 4.9 -8.7°
Maximum altitude 17:54:38 49° 98° (E) 1,115 3.0 -9.6°
Drops below altitude 10° 18:00:00 10° 173° (S) 2,492 5.1 -10.4°
Sets 18:02:26 0° 179° (S) 3,415 5.9 -10.8°
